Home   Weather   Haql   Past weeks

Flag for Saudi Arabia Past Weather in Haql, Saudi Arabia — Yesterday and Last 2 Weeks

Now
88 °F

Sunny.


Feels Like: 85 °F
Forecast: 70 / 89 °F
Wind: 25 mph from Northeast

Location: Eilat

Current Time: Sep 30, 2016 at 1:02:39 PM

Latest Report: Sep 30, 2016 at 11:50 AM


Visibility: 10 mi

Pressure: 29.89 "Hg

Humidity: 29%

Dew Point: 52 °F

Location of HaqlLocation

Past Weather in Haql — Graph

°F

Haql Temperature Yesterday

Maximum temperature yesterday: 93 °F (at 2:50 PM)
Minimum temperature yesterday: 73 °F (at 5:50 AM)
Average temperature yesterday: 86 °F

High & Low Weather Summary for the Past Weeks

 TemperatureHumidityPressure
High106 °F (Sep 21, 2:50 PM)65% (Sep 18, 5:50 AM)30.01 "Hg (Sep 18, 5:50 AM)
Low73 °F (Sep 27, 6:50 AM)11% (Sep 21, 4:50 PM)29.65 "Hg (Sep 25, 3:50 PM)
Average89 °F34%29.83 "Hg
* Reported Sep 15 11:50 AM — Sep 30 11:50 AM, Haql, Weather by CustomWeather, © 2016

Note: Actual official high and low records may vary slightly from our data, if they occured in-between our weather recording intervals... More about our weather records

Advertising

Haql Weather History for the Previous 24 Hours

Scroll right to see more
 ConditionsComfort  
Time TempWeatherWind HumidityBarometerVisibility
11:50 AM
Fri, Sep 30
88 °FSunny.25 mph29%29.89 "Hg10 mi
10:50 AM86 °FSunny.24 mph31%29.89 "Hg10 mi
9:50 AM82 °FSunny.24 mph35%29.92 "Hg10 mi
8:50 AM81 °FSunny.16 mph39%29.92 "Hg10 mi
7:50 AM75 °FSunny.16 mph54%29.89 "Hg10 mi
6:50 AM73 °FSunny.15 mph57%29.89 "Hg10 mi
5:50 AM75 °FClear.12 mph54%29.89 "Hg10 mi
9:50 PM
Thu, Sep 29
86 °FClear.20 mph43%29.89 "Hg10 mi
8:50 PM90 °FClear.22 mph31%29.86 "Hg10 mi
7:50 PM90 °FClear.17 mph27%29.86 "Hg10 mi
6:50 PM90 °FClear.17 mph27%29.83 "Hg10 mi
5:50 PM91 °FSunny.23 mph30%29.83 "Hg10 mi
4:50 PM93 °FSunny.23 mph30%29.83 "Hg10 mi
3:50 PM93 °FSunny.23 mph30%29.83 "Hg10 mi
2:50 PM93 °FSunny.22 mph30%29.86 "Hg10 mi
1:50 PM91 °FSunny.24 mph32%29.89 "Hg10 mi
Weather by CustomWeather, © 2016

See weather overviewHow to use our weather pages